Location: ???? ?????????
(44.3677°N, 135.2344°E)
Time: 04:16:30
(UTC+00:00)

USA 238 - Pass Details

Date: 19 May 2025
Orbit: 897 x 1314 km, 63.4° (Epoch: 11 June)

Event Time Altitude Azimuth Distance (km) Brightness Sun altitude
Rises 17:48:38 0° 322° (NW) 3,972 6.8 -14.5°
Reaches altitude 10° 17:51:14 10° 323° (NW) 3,066 6.2 -14.2°
Maximum altitude 17:58:43 87° 53° (NE) 1,244 4.1 -13.3°
Drops below altitude 10° 18:06:47 10° 143° (SE) 3,296 6.2 -12.3°
Sets 18:09:40 0° 144° (SE) 4,284 6.8 -11.9°
